Weather in Nizhniye Buzuli

Russia / Amur Oblast     51°37′31″N   128°11′36″E
temp.,
°C
wind,
m/s
gust,
m/s
humid.,
%
clouds,
%
prec.,
mm/h
press.,
hPa
HPBL,
m
23 january, sun
sun2300:00−27wnw1110014 0.0 10329
03:00−27nnw1110018 0.0 103211
06:00−27nnw111009 0.0 10329
09:00−27nnw111009 0.0 103217
12:00−18n238653 0.0 1030260
15:00−15nnw248143 0.0 1029367
18:00−22wnw00995 0.0 10309
21:00−24w1110019 0.0 10309
24 january, mon
mon2400:00−24wnw221005 0.0 103022
03:00−24nw22995 0.0 102921
06:00−25nnw22995 0.0 102916
09:00−26n1110018 0.0 102918
12:00−17nne228626 0.0 1028219
15:00−15ne118336 0.0 1027274
18:00−23e111005 0.0 10289
21:00−25e0010048 0.0 10289
25 january, tue
tue2500:00−26n0010048 0.0 10289
03:00−27ne0010063 0.0 10289
06:00−28ne1110082 0.0 10279
09:00−27nne1110093 0.0 102714
12:00−18n118880 0.0 1026206
15:00−15nne128596 0.0 1024348
18:00−23nne119918 0.0 10259
21:00−25nw1110013 0.0 10259
26 january, wed
wed2600:00−25nnw2210017 0.0 102611
03:00−26nnw2210027 0.0 102614
06:00−26nnw2210022 0.0 102615
09:00−26nnw2110025 0.0 102627
12:00−16nnw238652 0.0 1025268
15:00−13nnw348274 0.0 1025424
18:00−21nnw22985 0.0 102712
21:00−22nw23995 0.0 102834
27 january, thu
thu2700:00−23nw24996 0.0 102943
03:00−24nw359840 0.0 103057
06:00−24nw35955 0.0 103170
09:00−24nw36935 0.0 103190
12:00−16nnw36743 0.0 1030344
15:00−14nw47733 0.0 1028524
18:00−20wnw22955 0.0 102934
21:00−20wnw389413 0.0 1026125